Stations météo

réclame
Mon MeteoGroup
Spa/La Sauveniere, Belgique (6490): Température de l'air & dewpoint: 11.02.2019 15:00:00 - 17.02.2019 15:00:00 (CET)Spa/La Sauveniere, Belgique (6490): Vitesse du vent & gusts: 11.02.2019 15:00:00 - 17.02.2019 15:00:00 (CET)Spa/La Sauveniere, Belgique (6490): Direction du vent: 11.02.2019 15:00:00 - 17.02.2019 15:00:00 (CET)Spa/La Sauveniere, Belgique (6490): reduced air pressure: 11.02.2019 15:00:00 - 17.02.2019 15:00:00 (CET)Spa/La Sauveniere, Belgique (6490): visibility: 11.02.2019 15:00:00 - 17.02.2019 15:00:00 (CET)
Date & Time tt [°C] td [°C] ff [km/h] ff [knt] fx [km/h] fx [knt] dd ppp [hPa] vv [km]
17.02.2019 15:00:00 14,7 -3,2 22 12 40 21 S 1019,9 35
17.02.2019 14:00:00 14,0 -2,8 25 14 40 21 SSE 1020,4 30
17.02.2019 13:00:00 12,6 -2,4 29 16 - - SSE 1021,0 29
17.02.2019 12:00:00 11,1 -1,0 29 16 47 25 S 1021,8 25
17.02.2019 11:00:00 8,7 -0,7 29 16 40 21 SSE 1022,2 22
17.02.2019 10:00:00 6,7 -0,6 25 14 - - SE 1022,9 17
17.02.2019 09:00:00 5,7 -0,5 29 16 36 19 SSE 1023,3 14
17.02.2019 08:00:00 5,5 -0,8 18 10 25 14 SSE 1023,5 13
17.02.2019 07:00:00 5,1 -0,9 14 8 - - SSE 1023,7 11
17.02.2019 06:00:00 6,6 -0,2 25 14 29 16 SSE 1023,9 13
17.02.2019 05:00:00 7,0 0,1 25 14 32 18 SSE 1024,0 13
17.02.2019 04:00:00 6,4 -0,4 22 12 - - SSE 1024,5 11
17.02.2019 03:00:00 5,9 -0,8 18 10 29 16 SSE 1025,3 10
17.02.2019 02:00:00 6,5 -0,1 18 10 29 16 SSE 1025,4 12
17.02.2019 01:00:00 7,8 -0,4 22 12 - - S 1025,5 16
17.02.2019 00:00:00 7,4 -0,8 22 12 32 18 SSE 1025,9 16
16.02.2019 23:00:00 7,8 -1,3 18 10 29 16 SSE 1025,9 17
16.02.2019 22:00:00 8,0 -1,7 22 12 - - SSE 1026,0 18
16.02.2019 21:00:00 8,3 -3,3 14 8 22 12 SSE 1026,2 20
16.02.2019 20:00:00 9,2 -3,9 18 10 22 12 SSE 1026,1 40
16.02.2019 19:00:00 8,8 -6,6 11 6 - - SSE 1026,3 40
16.02.2019 18:00:00 11,0 -5,7 4 2 7 4 SW 1026,0 45
16.02.2019 17:00:00 14,9 -4,1 7 4 14 8 SW 1025,2 30
16.02.2019 16:00:00 15,2 -3,8 7 4 - - W 1025,4 35
16.02.2019 15:00:00 15,1 -5,6 7 4 25 14 W 1025,6 40
16.02.2019 14:00:00 14,4 -5,1 14 8 25 14 WSW 1026,1 40
16.02.2019 13:00:00 14,0 -1,9 14 8 - - SW 1026,4 40
16.02.2019 12:00:00 12,0 -0,3 14 8 29 16 SW 1027,0 30
16.02.2019 11:00:00 9,5 -0,1 18 10 25 14 S 1027,3 28
16.02.2019 10:00:00 8,0 -0,6 4 2 - - S 1027,5 28
16.02.2019 09:00:00 5,8 -2,3 22 12 36 19 SSE 1027,3 30
16.02.2019 08:00:00 5,4 -3,0 18 10 25 14 SSE 1027,3 35
16.02.2019 07:00:00 5,5 -2,8 14 8 - - SSE 1026,9 35
16.02.2019 06:00:00 5,9 -3,0 25 14 36 19 SSE 1027,4 45
16.02.2019 05:00:00 6,9 -2,5 22 12 36 19 S 1027,1 40
16.02.2019 04:00:00 7,0 -2,4 25 14 - - S 1027,5 45
16.02.2019 03:00:00 7,1 -2,4 25 14 36 19 SSE 1027,9 45
16.02.2019 02:00:00 7,3 -2,3 25 14 40 21 SSE 1027,8 45
16.02.2019 01:00:00 6,7 -2,2 29 16 - - SSE 1028,2 45
16.02.2019 00:00:00 7,1 -2,8 22 12 36 19 SSE 1028,2 45
15.02.2019 23:00:00 8,1 -2,5 18 10 29 16 SSE 1028,4 45
15.02.2019 22:00:00 8,5 -2,5 22 12 - - SSE 1028,6 45
15.02.2019 21:00:00 9,7 -2,8 25 14 40 21 SSE 1028,1 45
15.02.2019 20:00:00 10,4 -3,1 29 16 40 21 SSE 1028,3 45
15.02.2019 19:00:00 10,9 -4,9 22 12 - - S 1028,5 50
15.02.2019 18:00:00 12,4 -4,4 18 10 25 14 SSE 1028,2 45
15.02.2019 17:00:00 14,8 -3,7 14 8 25 14 SSE 1028,1 45
15.02.2019 16:00:00 15,4 -4,1 18 10 - - SSE 1028,7 40
15.02.2019 15:00:00 15,4 -4,1 18 10 32 18 SSE 1029,1 40
15.02.2019 14:00:00 15,0 -4,6 18 10 40 21 SSE 1029,9 45
15.02.2019 13:00:00 13,7 -5,1 22 12 - - SSE 1030,7 40
15.02.2019 12:00:00 12,3 -5,9 25 14 40 21 SSE 1031,6 45
15.02.2019 11:00:00 11,0 -7,8 25 14 40 21 SSE 1031,9 40
15.02.2019 10:00:00 9,5 -8,7 25 14 - - SSE 1032,3 45
15.02.2019 09:00:00 8,0 -10,2 11 6 29 16 SSE 1032,9 45
15.02.2019 08:00:00 7,6 -11,0 22 12 36 19 SSE 1032,9 50
15.02.2019 07:00:00 7,9 -11,6 25 14 - - SSE 1032,5 45
15.02.2019 06:00:00 7,5 -11,3 25 14 36 19 SSE 1032,8 50
15.02.2019 05:00:00 7,5 -12,6 25 14 36 19 SSE 1032,8 50
15.02.2019 04:00:00 6,8 -10,1 25 14 - - SSE 1033,3 50
15.02.2019 03:00:00 6,7 -7,8 22 12 32 18 SSE 1033,8 45
15.02.2019 02:00:00 6,5 -7,3 22 12 29 16 SSE 1034,2 50
15.02.2019 01:00:00 6,9 -7,2 18 10 - - SSE 1033,9 45
15.02.2019 00:00:00 7,3 -7,4 11 6 22 12 SSE 1033,9 45
14.02.2019 23:00:00 7,1 -8,1 14 8 29 16 SSE 1034,2 50
14.02.2019 22:00:00 7,9 -8,8 22 12 - - SSE 1034,2 50
14.02.2019 21:00:00 8,5 -8,2 25 14 32 18 SSE 1034,2 45
14.02.2019 20:00:00 9,4 -8,8 25 14 32 18 SSE 1034,0 50
14.02.2019 19:00:00 9,5 -8,5 22 12 - - SSE 1034,1 45
14.02.2019 18:00:00 10,2 -8,7 22 12 29 16 SSE 1033,8 50
14.02.2019 17:00:00 11,9 -8,2 7 4 18 10 SSE 1034,0 45
14.02.2019 16:00:00 12,7 -8,8 11 6 - - SSE 1034,1 45
14.02.2019 15:00:00 12,7 -8,0 11 6 32 18 S 1034,2 45
14.02.2019 14:00:00 12,3 -7,4 18 10 32 18 SSE 1034,8 40
14.02.2019 13:00:00 11,4 -5,6 22 12 - - SSE 1035,5 40
14.02.2019 12:00:00 10,3 -5,2 22 12 32 18 SSE 1035,9 35
14.02.2019 11:00:00 8,2 -4,5 22 12 29 16 SSE 1036,5 40
14.02.2019 10:00:00 7,4 -4,7 22 12 - - SSE 1036,6 40
14.02.2019 09:00:00 5,9 -5,4 22 12 32 18 SSE 1036,8 45
14.02.2019 08:00:00 4,6 -5,4 25 14 32 18 SSE 1036,5 45
14.02.2019 07:00:00 4,7 -5,3 18 10 - - SSE 1036,1 50
14.02.2019 06:00:00 4,9 -5,1 22 12 29 16 S 1036,0 45
14.02.2019 05:00:00 4,3 -5,5 18 10 29 16 SSE 1036,1 45
14.02.2019 04:00:00 4,6 -5,2 22 12 - - SSE 1036,1 45
14.02.2019 03:00:00 4,3 -5,3 18 10 25 14 SSE 1036,0 50
14.02.2019 02:00:00 4,1 -4,7 18 10 29 16 SSE 1036,3 50
14.02.2019 01:00:00 4,0 -5,1 14 8 - - S 1036,3 50
14.02.2019 00:00:00 3,8 -3,8 18 10 25 14 S 1036,3 50
13.02.2019 23:00:00 3,9 -2,4 18 10 25 14 S 1036,6 45
13.02.2019 22:00:00 2,9 -1,8 22 12 - - SSE 1036,9 45
13.02.2019 21:00:00 2,6 -0,9 25 14 32 18 SSE 1036,7 30
13.02.2019 20:00:00 2,6 -1,1 25 14 32 18 SSE 1036,8 25
13.02.2019 19:00:00 3,0 -1,1 22 12 - - SSE 1036,5 24
13.02.2019 18:00:00 3,4 -1,3 14 8 25 14 SSE 1036,7 26
13.02.2019 17:00:00 4,1 -1,0 11 6 14 8 SSE 1036,4 25
13.02.2019 16:00:00 5,0 -0,2 11 6 - - SSE 1036,1 30
13.02.2019 15:00:00 6,0 1,0 7 4 14 8 S 1036,2 30
13.02.2019 14:00:00 5,3 -0,3 7 4 14 8 S 1036,6 35
13.02.2019 13:00:00 4,2 -0,6 7 4 - - S 1037,1 30
13.02.2019 12:00:00 2,4 -1,4 7 4 22 12 S 1037,8 17
13.02.2019 11:00:00 0,5 -2,6 14 8 22 12 S 1038,1 20
13.02.2019 10:00:00 0,1 -2,7 18 10 - - SSE 1038,2 30
13.02.2019 09:00:00 -1,8 -4,7 11 6 22 12 SSE 1038,6 15
13.02.2019 08:00:00 -1,5 -4,0 14 8 25 14 S 1038,0 19
13.02.2019 07:00:00 -1,6 -4,2 18 10 - - SSE 1037,7 16
13.02.2019 06:00:00 -0,6 -3,6 14 8 25 14 S 1037,7 26
13.02.2019 05:00:00 -1,0 -3,5 18 10 22 12 S 1037,7 20
13.02.2019 04:00:00 -0,7 -3,5 14 8 - - S 1038,0 22
13.02.2019 03:00:00 -0,5 -3,2 11 6 22 12 S 1038,6 19
13.02.2019 02:00:00 -0,4 -2,9 11 6 22 12 S 1038,1 17
13.02.2019 01:00:00 -0,2 -2,7 14 8 - - S 1037,8 16
13.02.2019 00:00:00 0,4 -2,3 11 6 18 10 SSW 1037,8 19
12.02.2019 23:00:00 0,4 -2,1 11 6 22 12 SW 1037,6 19
12.02.2019 22:00:00 0,8 -1,6 14 8 - - SSW 1037,2 21
12.02.2019 21:00:00 0,7 -1,3 7 4 25 14 SW 1037,5 16
12.02.2019 20:00:00 1,8 -2,0 11 6 14 8 SW 1036,8 45
12.02.2019 19:00:00 2,3 -2,2 11 6 - - SW 1036,7 45
12.02.2019 18:00:00 2,9 -1,3 7 4 14 8 SW 1036,3 45
12.02.2019 17:00:00 3,6 -1,2 11 6 18 10 WSW 1035,9 35
12.02.2019 16:00:00 3,6 -0,8 7 4 - - W 1036,0 30
12.02.2019 15:00:00 3,9 -1,4 11 6 22 12 WSW 1035,4 30
12.02.2019 14:00:00 3,6 -0,9 11 6 22 12 WSW 1035,7 28
12.02.2019 13:00:00 2,4 -0,9 7 4 - - SW 1036,2 28
12.02.2019 12:00:00 1,3 -1,4 7 4 14 8 SSW 1036,6 13
12.02.2019 11:00:00 0,7 -1,7 4 2 14 8 SW 1036,5 12
12.02.2019 10:00:00 0,1 -1,9 7 4 - - WSW 1036,3 -
12.02.2019 09:00:00 -0,6 -3,0 4 2 11 6 SSW 1035,5 -
12.02.2019 08:00:00 -1,0 -2,5 7 4 11 6 SW 1034,7 6
12.02.2019 07:00:00 -1,2 -2,6 4 2 - - WNW 1034,8 0,3
12.02.2019 06:00:00 -0,7 -2,2 7 4 11 6 W 1034,4 0,7
12.02.2019 05:00:00 -0,6 -2,3 7 4 14 8 W 1034,1 -
12.02.2019 04:00:00 -0,3 -1,6 7 4 - - W 1034,0 0,2
12.02.2019 03:00:00 -0,1 -1,5 7 4 11 6 W 1034,2 0,1
12.02.2019 02:00:00 0,1 -2,0 7 4 14 8 W 1033,6 0,2
12.02.2019 01:00:00 0,2 -0,3 4 2 - - W 1033,1 0,4
12.02.2019 00:00:00 0,3 -0,2 7 4 11 6 W 1032,5 0,5
11.02.2019 23:00:00 1,0 0,2 4 2 18 10 WNW 1031,8 -
11.02.2019 22:00:00 1,4 0,6 7 4 - - NW 1031,0 0,2
11.02.2019 21:00:00 1,6 0,8 11 6 22 12 NW 1030,1 3,1
11.02.2019 20:00:00 2,3 1,5 11 6 22 12 NW 1029,2 -
11.02.2019 19:00:00 2,6 1,8 11 6 - - NW 1028,4 -
11.02.2019 18:00:00 2,4 1,6 18 10 32 18 NNW 1027,2 4,3
11.02.2019 17:00:00 3,3 0,4 11 6 29 16 WNW 1025,2 27
11.02.2019 16:00:00 3,3 0,1 14 8 - - WNW 1024,3 28
11.02.2019 15:00:00 3,4 0,5 14 8 25 14 NW 1023,4 27

tt = Température de l'air
td = dewpoint
ff = Vitesse du vent
fx = gusts
dd = Direction du vent
ppp = reduced air pressure
vv = visibility

stations d'obs. à proximité